Wind_Speed
1 4 2 4 5 5 6 7 6 5 4 7 7 11 12 14 17 18 18 21 25 25 24 27 29 30 32 33 33 35 39 39 41 44 47 48 52 54 54 53 53 54 57 58
3 3 3 4 5 7 7 8 8 10 8 6 9 13 15 17 19 21 23 24 25 25 27 28 29 30 30 31 32 37 41 42 47 50 50 53 55 56 56 55 53 54 56 58
6 7 6 7 8 11 9 10 10 10 14 11 12 15 17 17 18 19 22 24 26 27 27 30 31 29 32 33 36 40 43 45 51 52 53 56 54 54 54 53 54 54 54 56
8 10 11 12 12 12 15 15 14 15 13 12 16 19 19 21 21 23 25 27 27 28 29 32 30 34 32 35 40 42 44 48 53 54 56 56 54 51 52 53 54 54 57 58
12 14 17 17 15 15 16 18 18 16 14 14 16 18 20 23 25 28 30 31 32 33 33 32 35 36 38 42 44 47 48 52 52 55 54 54 55 56 56 58 59 61 62 64
16 17 19 21 20 18 18 18 17 16 16 16 18 20 22 27 31 34 35 36 35 36 35 37 40 42 44 46 47 49 50 49 52 53 55 57 58 60 62 62 63 65 67 68
19 19 21 22 22 21 19 19 17 16 17 19 21 24 29 30 34 34 36 37 39 38 39 41 43 44 46 46 48 51 52 52 52 57 59 60 63 66 67 69 71 72 72 72
18 19 20 20 20 19 18 16 17 20 21 23 27 29 33 32 35 38 40 41 41 42 44 46 47 47 47 49 51 54 53 55 58 60 62 62 64 68 72 75 74 76 80 82
13 13 14 15 15 17 17 18 20 23 26 26 28 27 33 34 37 38 39 40 42 44 46 47 46 46 49 51 53 56 58 58 62 65 64 66 65 70 75 77 80 84 85 85
13 13 12 12 15 16 19 22 25 27 31 32 30 21 26 37 40 37 37 39 40 42 42 43 44 46 50 54 56 57 60 63 65 69 73 74 77 81 78 83 86 88 89 87
16 17 16 17 20 22 23 26 28 29 31 33 35 26 28 30 33 33 33 35 37 41 42 42 45 50 54 54 58 63 64 67 68 70 72 75 77 81 85 86 88 88 88 88
19 21 22 22 23 24 24 27 30 33 35 33 34 30 31 34 32 33 36 40 42 41 40 45 50 53 58 62 64 66 66 67 68 68 68 75 80 84 88 91 91 89 89 88
21 22 23 23 24 26 27 27 30 35 37 37 37 34 31 36 38 40 42 44 44 45 48 54 58 61 64 65 66 67 67 68 70 75 79 79 83 84 86 94 94 94 90 84
23 24 26 27 27 26 26 29 34 39 40 42 34 39 33 37 39 42 43 45 49 53 60 62 62 63 66 68 69 69 70 74 78 78 78 80 84 86 91 96 96 90 82 71
28 28 31 31 31 30 27 30 34 39 39 41 39 39 40 42 45 47 45 50 56 60 62 64 64 66 66 68 70 72 73 77 78 81 81 83 90 97 97 98 88 78 66 48
34 34 33 32 35 36 30 33 37 35 35 38 42 41 43 44 45 47 50 56 58 61 64 64 64 68 69 71 71 71 74 69 72 81 87 96 100 99 93 87 74 60 46 44
41 40 39 32 35 34 28 30 36 36 36 38 42 43 45 45 49 51 53 57 60 64 67 67 68 68 71 73 74 75 77 77 77 85 91 89 88 95 80 68 57 49 46 44
43 43 43 41 36 35 23 32 38 40 40 40 45 46 49 52 54 55 59 62 65 67 69 72 74 76 74 75 78 80 80 80 91 96 89 88 94 82 66 58 52 50 46 44
46 44 44 43 45 43 24 34 40 43 42 46 47 50 54 56 59 60 63 67 70 75 76 74 79 82 80 76 77 81 89 95 96 91 90 92 75 62 55 53 52 48 46 46
46 44 41 40 42 46 35 41 44 47 50 54 54 57 61 64 66 67 69 73 77 79 81 81 80 77 79 79 81 85 88 91 91 94 86 67 57 53 54 52 49 50 51 52
38 37 34 36 39 40 39 43 47 50 55 57 61 62 67 69 73 70 70 74 79 80 82 78 74 72 78 85 82 93 92 88 88 71 57 52 53 55 52 52 54 55 55 56
38 37 33 36 39 37 40 46 49 53 58 60 62 67 71 70 68 72 74 84 84 83 79 78 79 81 86 88 87 91 91 81 67 56 51 55 54 52 55 56 58 58 57 55
34 31 36 40 42 42 48 53 56 59 61 63 67 68 66 58 68 78 84 84 82 80 79 77 82 79 83 86 85 82 73 64 54 50 53 52 53 55 58 59 58 54 51 49
34 35 41 48 45 49 54 56 60 60 65 69 69 67 68 65 76 82 83 82 80 76 76 76 77 82 82 80 76 68 59 51 48 51 50 51 55 57 58 55 51 49 47 44
38 43 48 53 54 57 59 64 64 67 67 74 73 73 70 75 76 79 79 78 77 75 75 78 82 79 77 70 65 59 50 46 48 48 49 53 55 56 52 48 46 45 43 42
42 47 53 57 59 62 64 69 71 75 77 75 73 72 75 77 77 78 78 75 73 74 79 78 76 74 66 62 57 47 44 45 46 46 49 52 53 51 47 44 42 40 42 42
Wind_Direction
56 41 358 347 344 329 315 298 302 289 274 281 284 280 287 296 301 304 309 306 305 306 308 313 312 307 305 303 304 300 299 298 300 300 303 309 312 312 308 306 304 303 301 300
316 325 310 325 321 314 305 300 310 316 325 312 287 284 288 295 302 307 308 305 300 299 305 306 300 297 300 299 297 294 295 299 306 308 309 310 310 308 306 304 304 303 301 300
296 285 289 291 298 303 300 299 303 307 313 315 299 299 303 300 300 298 296 292 289 295 299 300 299 299 299 294 289 293 298 297 301 306 307 303 305 305 304 305 305 303 301 300
286 290 290 288 290 302 306 301 298 296 291 294 294 300 301 297 295 295 292 289 289 294 301 306 305 304 302 299 299 298 297 297 301 301 301 304 303 303 303 302 301 301 299 298
288 286 285 288 293 300 303 302 298 291 285 288 293 299 299 304 304 299 292 291 298 305 309 307 307 308 304 303 303 301 299 300 300 301 304 303 303 304 304 302 302 300 299 298
288 288 288 286 283 287 295 299 298 286 284 292 299 303 308 308 302 298 297 304 309 311 309 312 311 308 306 304 301 298 300 301 301 304 305 304 302 303 304 303 301 300 298 297
287 285 285 288 288 287 291 293 293 285 291 296 300 302 305 306 300 300 303 308 311 311 312 310 306 301 302 304 302 303 305 306 305 307 307 306 304 303 304 303 302 300 299 299
291 288 287 288 288 291 292 291 288 287 288 292 300 309 309 307 301 303 309 313 312 311 308 305 305 307 308 307 309 309 307 307 307 306 304 304 304 301 299 300 301 302 302 303
297 293 288 288 288 286 283 285 288 288 290 295 298 307 305 301 299 304 307 307 307 305 305 308 309 309 308 308 308 307 306 305 302 298 299 299 300 303 304 304 303 303 303 303
307 301 296 291 287 286 293 294 295 296 300 300 301 310 298 295 301 303 304 306 306 305 304 304 305 305 307 307 304 302 303 301 298 297 298 297 296 301 303 302 302 301 301 302
303 302 301 301 299 298 299 299 298 299 297 302 307 317 301 295 295 298 298 300 301 303 304 305 306 304 302 301 301 303 302 299 298 295 296 298 298 300 302 303 303 303 303 303
299 301 301 302 300 298 299 300 300 301 302 308 308 325 307 304 304 306 310 311 309 305 303 306 305 303 302 301 300 298 297 297 298 296 297 297 301 303 305 307 307 308 307 306
302 301 298 297 296 298 301 304 305 303 306 310 309 316 308 307 311 313 311 310 308 307 304 303 302 302 303 303 302 301 300 299 300 303 302 301 300 301 300 305 307 308 311 308
305 306 303 300 298 296 302 304 302 298 301 299 310 305 306 302 305 307 309 308 305 304 306 306 306 304 304 305 305 304 304 303 303 303 302 301 300 301 308 312 313 312 310 309
303 300 297 299 298 297 300 295 291 294 296 299 302 304 306 310 311 310 310 306 304 305 306 308 309 305 304 303 304 304 304 303 304 302 304 297 296 308 313 314 313 311 311 309
310 308 299 293 294 295 297 293 297 291 294 298 303 308 306 309 309 305 305 304 308 307 306 306 304 304 305 305 302 301 303 306 297 297 300 305 310 312 313 315 313 311 309 307
314 308 305 300 290 295 299 296 291 293 294 300 302 305 307 308 305 307 306 307 308 307 307 308 307 307 306 306 306 304 307 306 305 307 310 312 315 317 316 312 310 310 307 303
315 309 305 302 296 292 303 294 292 292 295 301 303 306 309 310 309 310 311 312 309 309 310 310 310 311 310 309 308 306 305 304 309 315 318 316 313 316 313 313 312 310 308 306
313 310 303 303 298 293 310 289 291 292 296 299 305 312 313 312 313 314 310 308 311 313 314 311 310 311 309 306 306 301 303 310 312 313 317 316 316 314 314 312 311 310 309 307
310 305 303 301 296 297 314 303 304 304 308 309 314 316 314 313 310 311 311 314 314 313 312 311 310 308 306 305 304 307 308 312 314 313 315 316 315 314 313 312 312 312 310 308
306 303 303 297 296 301 304 302 304 309 309 313 313 313 312 312 313 312 311 311 311 311 310 310 309 305 301 306 308 310 315 316 318 318 318 319 317 316 315 314 314 312 310 308
303 302 302 302 299 302 301 302 306 308 310 313 312 311 312 312 311 311 307 309 311 311 310 309 310 305 304 309 312 314 317 321 319 319 322 320 319 318 317 315 314 313 311 310
304 305 306 308 304 304 305 307 306 308 312 311 309 309 313 300 298 305 307 308 308 310 310 307 307 310 311 313 316 318 320 319 318 319 321 321 320 318 317 316 315 315 315 316
310 308 306 300 306 303 303 304 308 313 309 308 308 309 303 299 298 301 304 306 309 308 306 306 308 313 317 318 319 320 319 319 319 320 321 322 321 319 319 319 319 319 319 319
313 311 304 304 305 307 307 306 307 307 306 307 308 307 303 301 302 303 306 307 308 311 308 310 317 318 318 319 320 318 319 318 320 322 323 323 322 322 323 323 323 322 323 323
307 302 300 305 307 307 307 305 304 303 306 308 307 305 304 305 305 305 306 308 310 308 311 316 316 318 319 319 318 318 318 320 323 325 325 325 326 326 326 326 326 326 329 327
Height
5821 5821 5821 5820 5821 5821 5820 5820 5819 5820 5820 5819 5818 5817 5816 5815 5813 5811 5809 5807 5805 5802 5800 5799 5796 5793 5790 5786 5781 5777 5773 5769 5764 5760 5755 5750 5745 5741 5737 5731 5726 5720 5715 5710
5820 5820 5820 5820 5819 5820 5819 5818 5817 5816 5816 5816 5814 5812 5812 5811 5809 5807 5806 5804 5802 5800 5799 5796 5792 5788 5784 5781 5776 5771 5766 5761 5755 5750 5745 5741 5735 5729 5724 5720 5717 5711 5705 5699
5819 5819 5819 5818 5818 5817 5816 5816 5815 5814 5812 5813 5811 5810 5810 5809 5807 5805 5803 5801 5798 5797 5794 5789 5786 5783 5778 5774 5769 5764 5759 5753 5747 5741 5736 5731 5726 5721 5715 5708 5702 5696 5691 5685
5817 5817 5817 5816 5816 5815 5813 5812 5812 5811 5811 5811 5809 5808 5806 5804 5803 5801 5798 5795 5793 5790 5787 5784 5780 5775 5770 5765 5761 5756 5750 5745 5739 5733 5727 5722 5715 5709 5702 5696 5689 5683 5677 5671
5815 5813 5812 5812 5813 5813 5811 5809 5809 5808 5808 5807 5806 5804 5801 5798 5796 5794 5790 5788 5786 5785 5782 5777 5772 5768 5763 5757 5752 5746 5741 5736 5730 5723 5717 5710 5701 5693 5686 5680 5674 5668 5662 5655
5810 5809 5808 5808 5809 5809 5808 5806 5805 5804 5803 5802 5800 5799 5797 5794 5789 5784 5782 5782 5780 5776 5772 5767 5762 5757 5752 5747 5742 5736 5730 5724 5717 5709 5701 5693 5685 5679 5672 5665 5659 5652 5646 5639
5807 5806 5804 5804 5803 5804 5803 5803 5801 5800 5798 5797 5795 5794 5791 5787 5781 5778 5777 5774 5771 5767 5762 5757 5753 5748 5742 5736 5729 5723 5716 5710 5703 5694 5685 5677 5670 5663 5657 5650 5643 5635 5627 5621
5801 5802 5800 5800 5800 5799 5798 5797 5796 5794 5794 5793 5790 5788 5783 5780 5774 5770 5768 5765 5761 5757 5752 5746 5740 5735 5729 5723 5717 5710 5703 5696 5688 5681 5674 5666 5658 5649 5642 5634 5625 5615 5606 5598
5798 5797 5796 5796 5795 5795 5793 5792 5791 5789 5788 5787 5786 5785 5776 5772 5769 5766 5763 5758 5752 5747 5741 5736 5731 5725 5718 5712 5705 5698 5692 5685 5676 5668 5660 5651 5641 5634 5625 5615 5605 5596 5586 5576
5796 5795 5794 5793 5791 5791 5789 5787 5785 5784 5780 5779 5778 5781 5774 5764 5761 5759 5754 5749 5743 5738 5733 5728 5721 5714 5707 5701 5695 5687 5679 5671 5661 5652 5644 5636 5626 5616 5607 5597 5586 5574 5565 5556
5794 5793 5793 5790 5788 5786 5785 5782 5780 5778 5775 5771 5766 5772 5764 5760 5755 5751 5747 5743 5737 5730 5724 5718 5711 5704 5697 5689 5681 5674 5665 5656 5647 5637 5628 5618 5609 5598 5588 5577 5566 5554 5545 5536
5791 5789 5788 5787 5784 5782 5779 5776 5772 5768 5766 5764 5759 5761 5753 5747 5744 5741 5736 5731 5725 5719 5713 5707 5700 5692 5685 5677 5669 5659 5650 5640 5630 5621 5611 5601 5590 5578 5567 5557 5546 5535 5524 5514
5786 5785 5783 5782 5781 5777 5774 5771 5766 5761 5756 5753 5750 5751 5746 5738 5734 5730 5725 5720 5713 5708 5702 5695 5688 5680 5671 5662 5652 5642 5632 5623 5613 5603 5592 5582 5571 5559 5548 5538 5526 5513 5502 5492
5781 5779 5776 5774 5774 5772 5769 5764 5758 5753 5749 5743 5747 5737 5740 5733 5729 5724 5718 5711 5703 5697 5690 5682 5674 5665 5655 5645 5636 5626 5616 5605 5595 5584 5574 5564 5552 5540 5528 5516 5504 5491 5480 5469
5777 5775 5771 5768 5764 5764 5764 5760 5753 5746 5743 5737 5736 5732 5728 5723 5718 5711 5707 5699 5693 5687 5677 5668 5660 5649 5640 5629 5619 5609 5598 5588 5578 5568 5556 5545 5533 5520 5507 5495 5482 5470 5459 5450
5770 5766 5764 5764 5756 5754 5756 5750 5744 5741 5739 5733 5727 5724 5719 5715 5709 5703 5698 5688 5681 5671 5663 5654 5644 5634 5624 5614 5604 5594 5583 5571 5561 5549 5538 5524 5513 5499 5487 5472 5460 5450 5443 5438
5761 5755 5752 5754 5749 5747 5748 5742 5735 5732 5729 5725 5719 5716 5711 5707 5699 5692 5684 5674 5666 5657 5648 5639 5629 5618 5607 5597 5587 5575 5565 5554 5542 5531 5519 5504 5491 5479 5465 5454 5445 5438 5431 5425
5753 5747 5742 5739 5739 5737 5743 5732 5726 5721 5720 5717 5710 5705 5699 5693 5684 5676 5665 5658 5650 5642 5632 5620 5607 5598 5586 5576 5567 5557 5547 5537 5525 5512 5498 5485 5471 5458 5447 5439 5432 5424 5417 5411
5745 5739 5733 5732 5726 5724 5735 5724 5718 5712 5712 5705 5699 5693 5685 5676 5669 5662 5654 5645 5634 5621 5612 5604 5592 5579 5570 5560 5550 5540 5528 5519 5507 5494 5481 5468 5453 5443 5435 5427 5418 5411 5405 5399
5737 5731 5728 5724 5717 5712 5719 5708 5703 5699 5696 5688 5684 5676 5668 5661 5654 5648 5637 5626 5615 5605 5594 5586 5575 5565 5554 5544 5532 5520 5510 5498 5487 5476 5463 5450 5440 5433 5424 5415 5407 5400 5392 5385
5728 5723 5721 5714 5710 5709 5707 5700 5694 5691 5687 5679 5673 5665 5657 5647 5636 5627 5619 5611 5601 5590 5581 5570 5560 5550 5539 5528 5516 5502 5490 5479 5469 5456 5445 5436 5429 5420 5411 5403 5395 5387 5379 5370
5720 5715 5714 5709 5704 5705 5698 5693 5690 5683 5675 5668 5660 5651 5642 5632 5623 5614 5603 5594 5584 5575 5564 5554 5544 5535 5522 5510 5497 5485 5471 5460 5451 5441 5432 5424 5416 5408 5399 5390 5381 5372 5362 5353
5713 5713 5706 5702 5697 5694 5688 5682 5676 5669 5662 5654 5646 5637 5628 5619 5610 5601 5591 5579 5569 5557 5547 5537 5528 5517 5505 5492 5481 5469 5456 5446 5438 5430 5422 5414 5405 5397 5387 5378 5368 5357 5348 5340
5706 5703 5696 5688 5690 5684 5677 5672 5663 5656 5647 5639 5632 5623 5614 5608 5596 5586 5574 5563 5552 5543 5532 5521 5510 5499 5488 5476 5464 5454 5445 5436 5430 5421 5413 5404 5395 5385 5375 5364 5354 5345 5337 5330
5696 5690 5682 5678 5676 5670 5665 5656 5649 5642 5633 5624 5618 5609 5601 5593 5583 5569 5560 5548 5538 5527 5516 5506 5494 5485 5474 5462 5451 5442 5434 5428 5421 5412 5404 5395 5385 5375 5365 5354 5344 5336 5327 5320
5684 5676 5669 5664 5661 5653 5648 5640 5633 5625 5619 5611 5602 5594 5583 5571 5562 5553 5544 5533 5522 5513 5503 5493 5483 5470 5461 5451 5441 5433 5427 5419 5412 5404 5395 5386 5376 5365 5355 5346 5338 5327 5320 5312